Zurück zum Katalog

YUNHAI 2-1F

AktivWetterLEO
NORAD 43915·PAYLOAD·🇨🇳 China

Gestartet Dec 29, 2018 von Jiuquan Satellite Launch Center

Loading…

Nächste Überflüge (nächste 24 Stunden)

TLE

AktuellSource: Space-Track

Epoche: Sep 14, 2026, 23:02 UTC

1 43915U 18112G   26257.96028943  .00000124  00000-0  11215-3 0  9998
2 43915  50.0100 206.5673 0007235 284.6382  75.3731 14.29057828401141

Verfolge YUNHAI 2-1F in Echtzeit mit AllMySat

Download on the App Store